sat.trackr.live / text

‹ back to catalog

STARLINK-11213 [DTC]

NORAD 60309 · 2024-133J

PAYLOAD ACTIVE UNKNOWN

§ Identity

Operator
Country
US
Launch date
2024-07-28
Launch site
AFWTR
Launch vehicle
Mass (kg)
RCS (m²)

Purposes: comms

External: N2YO · Heavens-Above · Gunter

§ Orbital elements

Epoch: 2026-05-25T03:11:48.274368Z

Period
91.74 min
Inclination
53.1586°
Eccentricity
0.0000902
Mean motion
15.69707421 rev/d
Perigee alt
359.1 km
Apogee alt
360.3 km
Semi-major
6,737.9 km
B*
1.8904e-6
RAAN
129.1473°
Arg perigee
84.8863°
Mean anomaly
275.2258°
Rev number
10,574

§ Raw data

STARLINK-11213 [DTC]1 60309U 24133J   26145.13319762 -.00000359  00000+0  18904-5 0  99952 60309  53.1586 129.1473 0000902  84.8863 275.2258 15.69707421105743

JSON: /api/v1/satellites/60309 · /tle

For live sub-satellite position, see the globe view (requires WebGL).

§ Visibility from observer

Set your observer location to see the next 7 days of passes ≥ 10°. The values pass through the URL so the page stays shareable.

No JS? Fill the form by hand. The geolocation button needs JavaScript.